Theta_e
330 330 331 332 331 332 332 332 332 332 331 331 330 329 327 327 330 332 331 332 333 333 333 332 332 332 332 331 331 332 332 332 332 331 331 331 331 332 332 331 331 331 331 331 331 331 331 332 331 329 327 327 327 328 327 328 329 327 326 324 320 316 313 313 310 308 309 311 311 311 310 309 309 308 307 306 304 304 304 302 301 303 306 307 308
329 330 332 332 331 332 332 332 332 331 331 328 327 327 327 327 330 331 332 333 333 333 333 332 332 332 331 331 331 331 332 332 332 331 331 331 331 332 331 330 330 330 330 330 330 330 330 331 330 328 327 327 328 328 327 327 328 327 326 324 321 318 316 314 310 308 309 310 310 310 310 309 309 309 309 306 305 306 306 304 303 302 304 306 307
329 329 331 332 332 332 332 332 332 331 329 327 325 326 327 327 330 331 332 333 333 332 332 332 332 332 331 331 331 331 331 331 331 331 331 331 331 331 331 331 330 330 330 330 329 329 329 329 329 328 327 328 328 328 328 327 327 327 326 325 324 323 322 318 313 310 309 310 310 310 310 309 310 311 310 308 306 306 307 307 306 305 305 306 307
329 328 329 330 331 332 332 332 332 330 329 328 326 325 326 327 330 331 332 333 332 331 332 332 331 331 330 330 330 330 330 330 330 330 330 331 331 330 330 330 330 330 330 330 329 329 329 329 329 328 328 328 328 328 328 327 326 326 326 325 325 325 324 321 316 311 310 310 311 311 310 310 310 311 311 309 306 306 307 308 308 308 307 307 307
328 328 328 328 329 330 330 330 331 330 329 328 326 325 325 327 329 330 331 332 331 330 331 331 330 330 329 328 330 330 329 328 329 329 329 330 330 330 330 330 330 330 330 330 329 329 330 330 330 329 329 329 328 328 328 326 325 325 325 324 324 324 324 320 315 311 310 310 311 311 311 310 310 311 311 311 308 306 307 307 308 308 308 308 309
327 328 328 328 328 328 329 329 330 330 328 327 326 325 325 327 329 330 330 330 330 330 331 330 329 329 328 328 328 328 328 328 328 328 329 328 329 330 330 330 330 330 330 329 329 329 330 330 330 330 330 329 329 327 327 326 326 326 325 324 324 324 323 319 313 310 310 310 310 311 311 310 311 310 311 312 310 308 306 307 307 308 309 309 310
324 326 327 327 327 328 329 329 329 329 328 327 325 324 326 328 330 330 330 328 328 329 330 329 328 327 327 327 328 327 327 327 327 327 328 328 328 329 330 329 330 330 329 328 328 328 329 329 329 330 330 329 328 327 326 326 327 326 325 325 325 324 323 319 313 310 311 310 310 311 311 311 311 311 311 312 311 309 307 306 307 308 309 310 311
320 322 324 326 326 327 327 327 328 328 328 327 325 325 327 329 329 328 328 328 327 327 327 326 326 326 326 327 327 327 327 327 327 327 327 327 327 328 329 328 328 328 327 327 328 327 327 327 328 328 329 329 328 327 327 327 327 326 325 324 323 322 322 319 314 312 312 311 310 311 311 311 311 311 311 311 309 308 308 308 308 310 310 311 311
317 320 322 323 325 326 326 327 327 327 327 328 327 327 328 329 327 325 326 328 326 325 326 326 325 325 325 325 326 327 327 327 326 326 326 327 326 327 328 327 327 327 326 326 326 326 326 326 327 327 328 327 327 327 327 327 327 325 324 323 322 321 320 317 314 312 313 312 311 311 311 311 311 311 311 311 310 310 311 309 309 311 311 311 311
312 316 319 320 323 325 326 327 327 327 328 328 328 328 329 329 327 324 326 326 325 325 326 325 324 323 323 324 324 325 326 326 326 325 326 326 326 326 326 325 325 325 324 324 325 325 325 325 326 326 327 326 326 327 326 327 326 324 322 321 320 320 319 316 314 314 313 313 313 312 312 311 312 312 312 312 312 312 311 310 310 311 310 310 311
309 312 315 317 320 324 326 327 326 327 328 328 328 329 328 326 324 324 326 326 325 325 325 323 322 322 322 322 322 322 322 323 324 325 325 325 325 325 324 324 324 323 322 323 323 323 324 325 326 327 327 327 327 327 326 326 326 324 322 320 320 319 317 315 315 315 315 314 314 314 314 313 313 313 312 312 312 312 311 311 311 311 310 310 310
307 309 311 314 317 321 325 326 325 326 328 328 328 328 327 325 324 324 325 326 324 323 322 320 320 320 319 319 319 318 319 320 321 323 324 323 323 322 322 322 322 321 321 322 323 323 324 325 326 327 327 327 326 326 325 326 326 324 322 321 321 320 318 315 316 316 316 316 316 316 316 316 316 316 315 314 314 313 313 312 312 311 311 310 311
306 307 309 312 313 317 323 326 325 325 326 327 327 327 326 325 323 322 323 324 323 321 319 318 317 317 317 317 317 316 317 317 318 320 321 320 321 321 320 320 320 321 321 321 322 324 324 324 325 325 326 326 324 322 323 323 323 321 320 320 320 320 320 318 318 318 317 317 317 318 318 317 317 318 318 317 317 317 317 316 316 316 315 314 314
305 306 308 310 310 313 319 324 326 325 325 325 325 325 324 324 322 322 322 322 320 318 316 315 315 314 315 315 315 315 315 315 317 318 318 318 318 320 320 319 318 319 320 321 321 323 323 322 322 322 321 320 318 317 318 318 318 318 317 317 317 317 317 317 316 316 315 315 315 315 315 315 315 316 317 318 318 319 319 318 318 318 318 317 317
305 305 306 308 309 309 312 318 323 325 324 324 323 322 322 321 320 320 320 318 317 315 314 314 313 313 313 314 314 313 313 314 315 317 316 316 317 318 319 319 318 319 320 320 320 320 320 319 318 317 316 316 316 315 315 314 314 314 315 315 315 315 315 316 316 315 315 315 315 315 315 316 316 317 318 319 319 319 318 318 318 318 317 317 317
304 305 305 306 308 308 307 310 317 321 322 323 322 319 318 317 315 316 316 314 313 313 312 311 311 311 311 311 312 311 311 311 313 314 315 314 315 317 319 319 319 319 319 319 319 318 317 316 316 316 316 317 318 318 317 315 315 317 317 317 317 317 317 317 317 317 317 317 317 317 317 317 318 318 318 317 317 317 317 317 317 316 316 316 316
303 304 305 305 307 308 307 306 310 314 317 318 317 315 314 313 311 311 311 311 310 310 310 309 309 309 309 310 310 310 310 311 312 312 313 313 315 318 319 319 319 318 317 316 316 315 314 314 314 315 316 317 318 318 318 317 318 319 320 319 319 318 317 317 316 317 317 317 317 316 316 316 316 315 314 312 311 310 311 313 314 314 315 316 315
303 303 304 305 306 307 307 306 307 308 310 312 313 312 311 311 309 308 308 308 308 308 309 309 308 309 309 309 309 310 310 310 311 312 314 315 316 318 318 318 317 315 314 312 312 313 313 313 313 314 314 314 315 316 316 317 317 317 317 317 317 316 314 314 314 314 314 314 313 313 312 311 310 308 306 304 303 303 305 307 309 310 312 313 314
303 303 303 304 305 306 307 307 306 306 307 307 308 309 309 309 309 308 308 307 307 307 308 308 307 307 308 309 309 310 309 309 310 311 314 316 318 318 318 317 315 312 311 311 310 311 311 311 312 312 312 312 313 313 314 314 314 314 313 313 312 310 308 308 309 309 309 309 308 307 306 304 303 302 301 301 301 302 302 304 305 306 307 308 310
303 303 303 304 304 305 306 306 306 307 307 306 306 307 307 308 309 309 307 306 306 307 307 308 306 305 307 308 309 310 310 309 309 310 311 314 317 317 317 316 313 310 309 309 308 308 308 309 308 308 308 308 309 309 310 310 310 309 308 307 305 303 301 301 302 302 302 302 302 302 303 303 302 302 302 302 303 303 304 304 305 306 307 308 309
302 303 303 304 304 304 305 306 306 307 307 307 306 306 306 308 309 309 308 307 306 305 305 306 305 303 304 306 306 307 307 308 308 308 308 310 313 315 316 314 313 311 309 307 306 306 305 304 304 303 302 303 303 304 304 304 303 302 301 301 300 299 299 300 301 302 302 302 303 303 304 304 304 304 304 303 303 304 304 304 305 306 307 309 310
301 302 303 304 304 304 304 305 305 306 307 307 307 307 306 306 308 308 307 306 304 303 302 303 302 302 302 302 303 303 303 304 305 305 306 306 308 310 310 309 309 310 308 305 303 302 301 300 300 299 299 300 300 300 300 300 300 300 299 299 300 301 302 304 304 304 304 304 305 305 304 305 305 304 304 303 303 303 303 303 303 304 304 305 307
301 301 301 302 303 303 304 304 304 305 306 307 307 307 307 307 306 306 306 304 302 301 301 301 301 301 301 301 301 301 301 302 302 302 303 304 304 304 304 303 304 305 305 302 300 300 299 299 299 299 301 301 301 301 301 301 302 302 302 303 303 304 304 305 305 305 304 304 304 304 304 303 303 302 302 302 302 302 302 302 302 301 302 302 303
302 301 300 300 301 301 302 303 303 304 305 306 306 307 307 307 307 306 305 304 302 301 301 301 301 300 300 300 301 301 301 301 301 301 301 302 302 302 302 302 302 302 302 301 300 299 299 299 300 301 303 303 303 303 303 304 304 304 304 305 304 304 304 304 304 304 303 303 303 303 302 302 302 302 301 301 301 301 301 301 301 300 300 300 301
301 301 300 299 299 298 298 300 301 303 304 305 305 305 305 306 306 306 306 305 304 302 302 302 302 301 300 300 300 300 300 300 301 301 302 302 302 301 301 301 301 301 300 300 299 299 300 301 302 303 303 303 303 303 303 303 303 303 303 304 303 303 303 303 303 302 302 302 302 302 301 301 301 301 300 300 300 300 300 300 300 299 299 299 300
300 300 301 300 298 297 296 297 298 300 302 303 304 304 304 304 305 305 306 306 305 303 303 303 303 302 300 299 299 299 299 299 300 300 301 301 302 302 301 301 300 300 299 299 300 301 302 303 303 303 303 303 303 302 301 301 301 301 301 301 302 302 302 301 301 301 301 301 300 300 300 300 299 299 299 299 299 299 299 299 298 298 298 298 299
299 300 300 300 299 298 297 296 296 297 298 300 301 302 303 303 303 304 304 305 305 304 303 302 302 302 301 299 299 298 298 298 298 298 299 299 300 300 299 299 299 299 300 300 301 303 303 302 302 302 301 301 301 301 301 300 300 300 300 300 300 300 300 300 300 300 299 299 299 299 298 298 298 298 298 298 298 298 297 297 297 297 298 298 299
299 299 300 300 299 299 298 297 297 296 296 297 298 298 299 300 301 302 302 302 303 303 302 302 302 302 301 300 299 298 297 297 297 298 298 298 298 298 298 299 300 301 301 301 302 302 301 301 301 301 301 300 300 300 300 300 299 299 299 299 299 299 299 299 299 298 298 298 297 297 297 297 297 297 297 297 297 297 297 297 297 297 297 298 299
299 299 299 299 299 299 298 298 298 297 296 296 296 296 297 297 298 299 300 301 302 302 302 301 301 301 301 300 298 297 297 297 297 298 298 298 298 299 299 300 301 301 301 301 301 301 301 300 300 300 300 300 299 299 299 299 299 298 298 298 298 298 298 298 297 297 296 296 296 296 296 296 296 296 296 296 296 296 296 296 297 297 297 297 298
299 299 299 299 299 299 299 298 298 297 297 297 296 296 296 296 296 297 298 299 299 299 299 299 299 299 298 298 297 297 297 297 297 298 298 298 299 299 299 300 300 300 300 300 300 300 300 300 299 299 299 299 299 298 298 298 298 298 298 298 298 298 297 297 296 296 296 296 296 296 295 295 295 295 295 295 295 296 296 296 296 296 296 296 297
299 299 299 298 299 299 299 299 298 298 297 297 296 296 295 295 296 296 296 297 297 297 297 297 297 297 297 297 297 296 297 297 297 298 298 298 299 299 299 299 300 300 300 300 300 299 299 299 298 298 298 298 297 297 297 297 297 297 297 297 297 297 297 296 296 295 295 295 295 295 294 294 294 294 294 294 294 295 295 295 295 295 295 295 296
298 298 298 298 298 298 299 299 299 299 298 298 297 297 296 296 296 296 296 296 296 296 296 296 296 296 296 296 296 296 297 297 298 298 298 299 299 299 299 299 299 299 299 300 299 298 297 297 296 296 296 296 296 296 296 296 296 296 296 296 296 296 295 295 295 295 295 294 294 294 293 293 293 293 293 293 293 294 294 294 294 294 294 295 295
298 298 298 298 298 298 298 298 299 299 299 298 298 298 298 297 297 296 295 295 295 296 295 295 296 296 296 296 296 296 297 297 298 299 299 299 299 299 298 298 298 298 299 299 297 296 296 296 295 295 295 295 295 295 295 295 295 295 295 295 295 294 294 294 294 294 294 293 293 293 293 293 293 293 293 292 293 293 293 293 293 293 294 294 294
298 297 297 298 298 297 297 298 298 298 297 298 298 298 298 298 297 296 296 295 296 296 296 296 296 296 296 296 296 296 297 297 298 298 298 298 298 298 298 297 297 297 297 297 296 295 295 294 294 294 294 294 294 294 295 295 295 294 294 294 294 294 294 294 293 293 292 292 292 292 292 292 292 292 292 292 292 292 292 292 293 293 293 293 294
298 298 297 297 297 297 297 298 298 297 297 297 297 298 298 298 297 297 296 296 296 296 296 296 296 296 296 296 296 296 296 297 297 297 297 297 297 298 298 297 296 296 295 295 295 294 294 294 294 294 294 294 294 294 294 294 294 294 294 294 294 293 293 293 292 292 292 292 292 292 291 291 291 291 291 292 292 292 292 292 292 292 292 292 293
299 299 298 297 297 297 297 297 298 297 297 297 297 297 298 298 297 296 296 296 296 295 295 295 296 296 296 296 296 296 296 296 296 296 296 296 297 297 297 296 295 294 294 294 294 294 293 293 293 293 294 294 293 293 293 293 294 293 293 293 293 293 292 292 292 291 291 291 291 291 291 291 291 291 291 291 291 291 291 291 291 292 292 292 292
299 299 298 297 296 297 297 298 298 297 297 297 297 297 297 297 297 297 296 296 295 295 295 295 295 295 296 296 295 295 296 296 296 295 295 295 296 296 295 294 294 294 293 293 293 293 293 293 293 293 293 293 293 293 293 293 293 293 293 292 292 291 291 291 291 290 290 290 290 290 290 290 291 291 291 291 291 291 291 291 291 291 292 292 292
299 299 297 296 296 297 297 297 297 297 297 297 296 296 296 296 297 297 297 296 295 295 295 295 295 295 295 295 295 295 295 295 295 295 294 294 294 294 294 293 293 293 293 293 293 292 292 293 293 293 293 293 293 293 293 293 292 292 292 291 291 291 290 290 290 290 290 290 290 290 291 291 291 291 291 291 291 291 291 291 291 291 291 291 292
299 298 297 297 297 298 298 297 297 298 297 297 296 296 296 296 296 296 296 296 295 295 295 295 295 295 295 295 295 295 295 295 294 294 293 293 293 293 293 293 293 293 292 292 292 292 292 292 293 293 293 293 292 292 292 292 292 291 291 291 291 291 290 290 290 290 290 290 290 290 290 290 290 290 290 290 290 290 291 291 291 291 291 291 291
299 298 298 297 298 298 298 297 297 297 297 297 297 296 296 296 296 296 296 295 295 295 295 295 295 295 295 295 295 295 294 294 293 293 292 292 292 292 293 292 292 292 292 292 291 291 292 292 293 293 293 293 292 292 292 292 292 292 291 291 291 291 290 290 290 290 290 290 290 290 290 291 291 291 290 290 290 290 290 291 291 291 291 291 291
299 299 299 298 298 298 297 297 297 297 297 297 297 296 296 295 296 296 296 295 295 294 294 294 294 294 295 294 294 294 294 293 292 292 292 292 292 292 292 292 292 292 292 291 291 291 292 292 292 292 293 293 293 292 292 292 292 292 292 291 291 291 291 290 290 290 290 290 290 290 290 291 291 291 291 290 290 290 290 291 291 291 291 291 290
299 299 299 299 298 298 297 297 297 297 297 297 297 296 296 295 295 295 295 295 295 294 294 294 294 294 294 294 294 293 293 292 292 291 291 291 291 291 291 291 291 291 291 291 291 291 291 292 292 292 292 292 292 292 292 292 292 292 292 291 291 290 291 291 290 290 290 290 290 290 290 290 291 291 291 290 290 290 290 290 290 290 290 290 290
298 298 298 298 298 298 297 297 296 297 297 297 296 296 296 295 295 295 295 294 294 294 294 294 294 294 294 293 293 293 292 292 292 291 291 291 291 291 291 291 291 291 291 291 291 291 291 292 292 292 292 292 292 292 292 292 291 291 291 291 290 290 290 290 290 290 290 290 290 290 290 290 290 290 290 290 290 290 290 290 290 290 290 290 290
298 298 298 298 298 297 297 297 296 296 296 296 296 296 296 296 295 295 295 294 294 294 294 294 294 294 293 293 292 292 292 292 292 292 292 291 291 291 291 291 291 291 291 291 291 291 291 292 292 292 292 292 292 292 292 291 291 291 291 290 290 290 290 290 290 290 290 290 290 290 290 290 290 290 290 290 290 290 290 290 290 290 290 290 290
297 298 298 298 298 297 297 297 296 296 296 296 296 296 296 295 295 295 295 295 294 294 294 294 294 294 293 293 292 292 293 293 293 292 292 292 292 292 292 291 291 291 291 291 291 291 291 291 291 292 291 291 292 292 291 291 291 290 290 290 290 290 290 290 290 290 290 290 290 290 290 290 290 290 290 290 290 290 290 290 290 290 290 290 290
297 298 297 297 297 297 297 297 297 296 296 296 296 296 295 295 295 295 295 295 294 294 294 294 294 294 294 293 293 292 292 293 293 293 292 292 292 292 291 291 291 290 290 291 291 291 291 291 291 291 291 291 291 291 291 291 291 290 289 290 290 290 290 290 290 290 290 290 290 290 290 290 290 290 290 290 290 290 290 290 290 290 290 290 290
297 297 297 297 297 297 297 297 296 296 295 296 296 295 295 295 295 294 294 294 294 294 294 294 293 293 293 293 293 292 292 293 293 293 292 292 291 291 291 291 291 290 290 290 290 290 291 291 291 291 291 291 291 291 290 291 291 289 288 289 290 290 290 290 290 290 290 290 290 290 290 290 290 290 290 290 290 290 290 290 290 290 290 290 289
297 298 297 297 296 296 296 297 296 296 295 295 295 295 295 295 294 294 294 294 294 294 294 294 293 293 293 293 293 293 293 293 293 293 292 292 291 291 291 291 290 289 289 289 289 289 289 290 290 290 290 290 290 290 289 289 289 288 288 289 290 290 289 289 290 290 290 290 290 290 290 290 290 290 290 289 289 289 289 289 289 289 290 290 289
297 297 297 297 296 296 296 296 296 296 295 295 295 296 295 295 294 294 294 294 294 294 294 294 294 294 293 293 293 293 293 293 292 293 292 292 291 291 290 290 290 289 289 289 288 288 289 289 289 289 289 289 289 289 288 287 287 287 287 288 289 289 289 289 290 290 290 290 290 290 290 290 290 289 289 288 288 288 288 288 288 288 289 290 290
295 295 295 295 295 296 296 296 296 296 295 296 296 295 295 294 294 294 294 294 294 294 294 294 294 294 293 293 293 293 293 292 292 292 292 291 291 291 290 290 289 289 289 289 288 288 288 289 289 289 289 288 288 287 287 287 287 287 288 288 288 289 289 289 290 290 290 290 290 290 290 289 289 288 288 288 288 288 288 288 287 287 288 289 290
294 294 294 293 294 295 296 296 296 296 296 295 295 295 294 294 294 294 294 294 294 294 294 294 294 293 293 293 293 293 293 292 292 292 292 291 291 291 290 290 289 289 289 289 288 288 288 288 288 289 289 288 287 288 288 287 287 288 288 288 288 289 289 289 289 289 289 289 289 289 288 288 287 288 287 287 286 287 287 287 287 287 288 289 289
Wind_Speed
20 20 23 23 23 26 27 28 27 25 23 21 21 25 28 29 27 25 23 22 21 23 24 23 24 24 22 21 20 19 19 18 19 21 21 21 21 21 22 23 23 23 22 22 23 22 22 22 21 20 19 20 19 19 20 20 19 21 24 25 27 25 21 20 14 12 18 23 24 24 22 20 21 21 20 20 20 19 18 18 20 20 20 19 18
22 26 28 27 26 29 29 29 28 27 25 23 23 27 30 29 27 25 25 24 23 25 26 24 24 24 23 22 21 21 20 19 18 19 19 20 21 21 21 22 22 22 22 21 21 21 21 22 21 20 20 21 21 20 20 21 19 20 22 23 24 24 22 22 19 15 16 20 23 24 23 23 23 22 21 22 22 21 20 20 21 22 21 21 20
22 26 28 28 29 31 32 32 31 28 27 27 27 29 30 29 28 26 26 26 26 27 27 25 25 24 23 22 22 22 21 19 18 18 18 19 20 19 19 20 20 21 21 20 20 20 19 20 20 21 22 22 22 21 20 21 21 20 21 21 20 19 20 22 22 21 21 21 22 24 24 26 25 22 20 22 22 22 22 21 21 22 23 23 23
18 20 20 22 25 28 31 34 32 30 29 29 30 32 30 29 29 27 26 27 28 28 28 25 24 24 23 22 23 22 21 20 19 18 18 18 18 18 18 19 19 20 20 19 19 19 19 19 19 21 23 23 22 21 20 20 21 21 20 18 17 16 16 19 23 26 26 23 24 26 27 27 26 22 20 21 23 24 23 22 22 24 25 25 25
13 17 18 19 20 19 22 27 28 29 31 31 32 32 30 29 30 28 27 29 30 29 28 26 24 24 24 23 24 23 22 21 20 19 18 18 17 17 18 19 19 19 19 19 19 19 18 19 19 20 22 22 21 21 21 19 19 19 19 17 16 15 14 16 23 27 28 28 27 26 25 26 25 23 22 22 24 26 26 25 24 25 26 26 26
11 13 16 18 19 19 19 22 26 27 30 32 32 31 30 31 30 29 29 31 31 28 27 25 25 24 24 23 24 23 22 21 21 20 19 17 16 16 17 19 19 19 19 18 19 19 18 18 18 19 20 21 21 21 20 19 17 16 17 16 15 14 12 14 21 27 29 31 29 25 25 26 26 25 24 24 25 27 29 29 27 27 27 28 28
16 15 15 15 15 18 20 22 25 26 28 31 32 31 31 31 30 31 33 33 30 26 24 23 25 25 24 24 24 23 22 21 20 21 20 17 16 16 17 19 20 21 20 19 19 19 19 18 18 19 20 20 21 21 19 18 16 14 14 14 14 13 11 13 20 25 27 29 28 26 26 27 27 26 25 25 26 27 28 29 30 31 31 31 31
18 17 14 13 13 15 18 20 20 23 25 28 30 31 30 30 30 33 36 33 27 24 23 23 25 25 23 24 25 24 23 22 20 20 20 18 15 15 17 18 20 20 18 18 19 19 19 19 18 19 20 20 19 20 19 17 15 13 12 12 13 12 11 14 21 24 25 26 27 26 25 25 26 24 20 22 24 25 28 30 31 32 31 31 32
17 16 13 11 12 16 19 20 18 19 23 25 28 30 30 30 31 31 32 29 26 25 24 23 25 23 21 22 24 24 24 23 21 18 18 17 15 15 17 17 17 18 17 16 17 18 18 17 17 17 18 19 18 19 17 14 12 11 10 10 10 10 10 16 22 24 23 23 23 23 21 22 25 23 20 22 26 28 30 30 31 33 31 31 33
19 15 13 11 11 14 18 21 19 20 24 26 27 29 30 32 33 30 27 27 26 26 25 24 24 23 21 21 22 23 23 22 21 19 17 17 16 15 16 15 15 16 15 15 16 16 16 15 13 14 16 17 16 17 16 12 10 9 7 7 8 8 10 16 22 24 23 23 23 23 21 21 25 26 26 28 30 30 29 29 31 33 30 27 31
23 19 16 14 10 10 14 21 22 21 24 28 29 30 31 32 31 27 26 27 26 26 26 25 24 23 22 22 22 21 20 19 18 18 18 17 16 15 13 13 14 13 12 16 18 17 16 14 12 12 14 15 15 15 14 11 11 9 5 4 4 3 7 17 22 23 23 22 20 21 22 24 26 27 28 30 30 29 29 29 30 31 27 23 24
24 23 20 15 9 7 11 19 23 22 24 29 31 31 31 32 30 26 26 28 29 29 28 27 26 25 24 25 23 21 19 18 16 17 17 16 16 15 12 11 13 12 9 11 15 17 17 15 14 14 13 13 13 12 11 11 11 10 6 4 3 4 5 12 15 16 19 18 14 13 15 17 17 17 18 20 21 22 23 24 25 27 27 25 23
25 25 23 19 14 7 9 20 25 24 25 29 32 31 29 31 31 27 28 32 31 30 30 29 29 28 27 26 24 22 20 18 16 17 16 15 15 15 14 13 13 13 12 11 13 16 17 16 15 15 14 13 12 10 10 11 11 10 8 7 6 6 7 8 8 8 10 11 9 8 7 7 7 6 6 7 9 10 11 13 15 18 21 22 22
28 28 26 24 21 15 3 17 24 24 24 26 28 28 28 31 33 32 32 34 33 32 32 32 30 28 27 26 24 21 19 16 15 16 16 14 13 14 15 14 14 15 16 15 16 18 18 17 16 15 13 13 12 11 11 11 11 11 9 8 7 7 7 8 7 6 6 6 6 5 5 4 3 4 4 4 4 5 5 6 7 9 11 14 14
31 31 30 30 28 24 14 5 19 22 23 25 24 23 26 30 32 35 35 34 35 35 33 32 30 28 26 25 23 20 17 14 13 14 14 12 12 13 14 15 15 16 17 18 18 19 18 17 16 14 12 11 10 9 9 10 11 11 10 9 9 8 7 7 6 5 5 4 4 4 4 2 1 2 2 3 3 4 5 6 8 9 11 12 14
33 32 32 33 32 31 27 12 10 21 25 28 27 25 28 30 30 33 37 36 35 35 33 31 30 28 26 24 24 21 17 13 11 11 12 11 11 13 15 17 18 18 18 18 18 17 16 15 14 13 12 10 8 8 9 11 12 13 12 12 11 9 8 7 6 5 5 4 4 4 3 2 2 2 3 5 6 7 9 10 11 13 14 15 16
32 32 32 33 34 34 33 25 12 19 25 29 31 29 30 31 29 30 35 38 36 34 33 31 29 28 27 25 25 24 21 16 12 11 11 11 13 15 17 19 20 21 21 21 20 19 17 15 14 13 12 11 10 10 10 11 12 13 14 13 11 10 9 8 6 5 4 3 3 3 3 3 4 5 7 8 8 9 10 11 11 13 14 14 14
30 31 31 31 34 36 35 31 24 21 21 25 31 32 31 32 31 29 32 36 37 34 33 32 28 27 26 25 25 25 23 19 16 14 13 13 15 18 19 21 23 23 23 22 21 20 18 16 14 13 12 11 10 9 8 8 10 11 10 8 7 6 5 4 2 1 1 1 2 3 4 6 7 7 8 9 9 9 9 9 10 11 12 11 13
27 28 28 29 32 36 36 33 31 28 25 22 25 31 33 34 35 33 32 34 35 34 33 32 29 26 25 24 22 22 21 20 17 17 16 16 18 21 22 23 24 24 22 22 20 19 17 16 14 12 11 10 8 7 6 5 6 6 5 4 4 4 5 5 5 5 6 6 7 7 8 9 9 9 8 7 7 7 8 8 9 11 12 13 14
24 26 28 29 32 35 35 32 32 32 29 26 24 25 30 36 37 36 33 31 32 33 31 31 30 27 25 23 21 19 18 17 16 16 16 16 18 20 22 23 24 23 21 19 19 17 16 14 13 12 10 9 7 5 4 3 4 4 3 3 4 5 6 6 7 7 8 8 8 9 9 9 9 8 7 7 8 9 9 9 10 11 12 14 15
24 26 28 31 32 34 34 32 31 31 31 30 27 22 23 33 37 36 33 31 31 31 31 31 31 29 27 25 24 21 17 15 14 14 15 16 16 18 19 21 21 20 19 18 16 15 14 12 11 10 9 7 6 5 5 5 5 5 5 6 7 6 6 6 6 7 7 8 8 9 9 9 9 9 9 9 10 11 11 11 11 12 13 14 15
24 26 28 29 30 30 30 29 29 30 30 31 29 23 19 25 34 36 34 32 30 31 31 32 33 32 30 28 27 24 20 17 16 14 14 16 16 16 18 18 16 15 16 16 14 13 12 10 10 10 9 9 8 8 7 6 6 6 8 9 9 9 9 9 9 8 8 8 8 8 9 9 10 11 12 12 12 12 13 15 15 14 14 15 15
23 25 26 27 27 27 26 26 26 27 27 27 27 23 19 21 30 35 34 31 30 29 29 31 32 32 31 28 26 24 21 19 17 15 14 14 14 14 15 14 11 10 11 13 13 12 10 10 11 12 12 12 12 11 10 9 9 9 10 10 10 10 10 9 9 8 8 8 9 10 11 11 11 12 13 14 14 13 14 16 17 17 18 18 17
24 24 24 24 24 24 24 23 23 23 23 23 23 23 21 23 28 31 29 27 26 26 27 29 30 30 29 26 23 21 20 18 16 15 14 13 13 13 12 11 9 8 9 11 12 11 10 11 12 13 12 12 12 12 12 12 11 10 10 9 10 10 9 9 9 9 11 12 12 13 13 12 11 12 12 13 13 14 14 15 17 18 18 18 18
24 23 23 23 23 22 21 21 21 20 20 20 21 22 22 23 24 24 23 23 23 24 26 27 28 27 24 22 20 18 17 16 15 14 13 12 13 13 12 11 10 8 9 11 11 11 12 12 12 12 12 13 12 13 14 14 13 12 11 10 10 9 9 9 10 11 13 14 13 12 12 11 11 11 11 11 12 14 15 16 17 18 18 16 15
24 23 21 21 21 21 21 20 20 19 19 19 20 21 21 22 22 21 20 20 20 22 24 24 24 22 20 19 17 16 14 13 12 12 11 11 11 11 10 10 9 9 10 12 12 13 13 14 14 15 16 16 16 16 17 16 15 15 14 14 13 12 11 11 11 12 13 13 12 11 10 10 9 10 11 12 14 16 17 19 20 20 20 18 15
22 21 20 19 19 20 22 21 21 21 20 20 21 21 21 22 22 21 20 19 20 21 21 21 20 19 18 16 15 14 14 13 12 11 11 10 9 8 8 9 10 12 13 14 15 16 18 19 19 19 19 18 18 17 16 15 14 15 15 15 15 14 13 12 12 13 12 11 10 10 9 10 11 13 14 16 18 19 19 20 20 20 19 17 15
20 20 20 19 16 16 19 21 22 22 22 22 22 22 21 22 22 22 20 19 19 21 20 19 18 17 15 13 13 14 14 14 14 14 13 12 11 11 11 12 13 15 17 19 21 22 23 22 21 19 18 17 17 16 15 14 14 14 14 14 14 13 12 12 12 12 12 11 10 11 11 13 14 15 17 18 18 18 17 17 16 16 16 14 13
19 18 20 22 18 14 15 17 19 21 22 23 23 22 21 21 21 21 20 19 19 18 17 17 15 14 13 12 12 13 15 14 14 15 14 13 13 13 14 14 14 16 18 21 23 24 22 20 19 17 16 16 16 16 15 15 14 14 14 13 13 12 12 12 13 14 13 12 12 13 14 14 14 15 15 15 15 13 13 13 14 15 15 13 12
19 17 19 22 21 16 13 13 15 17 19 20 21 21 21 20 20 20 19 19 18 17 16 15 12 11 12 13 13 14 15 15 14 13 12 12 14 15 15 14 14 15 17 19 21 21 20 20 19 18 17 16 16 16 15 14 14 14 13 12 13 13 14 14 14 14 13 13 13 13 13 13 13 13 13 13 13 11 11 12 13 14 15 14 12
20 18 18 20 21 19 15 11 11 13 15 17 18 19 19 20 19 19 18 17 17 18 18 17 15 13 13 15 15 15 15 14 12 10 9 10 13 15 16 15 16 17 17 18 20 21 21 21 20 18 17 17 16 15 14 13 13 12 11 11 12 12 12 12 12 11 12 12 12 12 12 12 12 12 13 13 12 12 11 11 13 14 15 13 12
18 17 17 17 18 19 17 14 11 10 10 11 13 15 18 19 19 18 17 16 17 18 18 18 17 16 15 16 16 15 13 12 10 9 9 11 13 16 17 18 18 18 16 17 21 22 20 20 19 17 16 16 15 13 12 12 11 10 10 10 10 10 10 10 10 11 12 12 12 12 12 12 12 12 12 12 11 11 11 12 13 15 15 13 11
16 16 15 15 15 16 17 16 15 13 11 10 9 10 13 16 18 18 17 17 18 19 19 18 17 16 16 16 16 15 13 12 11 11 11 13 14 15 17 18 17 15 13 16 20 21 19 19 18 17 16 15 13 12 11 11 10 10 9 10 10 10 10 10 10 11 12 12 12 13 13 13 12 12 12 11 11 12 13 13 14 15 15 13 12
14 15 14 13 13 14 14 14 16 16 15 14 12 10 10 12 15 18 19 20 20 20 20 19 18 17 17 17 17 16 15 14 14 14 15 16 16 16 17 18 17 14 13 16 19 19 18 18 17 16 15 14 13 12 11 10 10 11 11 10 10 10 10 10 11 12 12 12 13 13 12 12 12 13 13 12 12 12 13 14 14 14 13 13 11
9 11 13 12 11 11 12 12 14 17 18 18 16 14 11 9 11 16 19 20 20 19 18 17 16 15 15 15 15 16 15 15 16 16 15 16 15 14 14 16 17 17 17 17 17 17 16 16 15 14 13 13 12 12 11 11 11 11 10 9 9 9 10 11 12 13 13 13 14 13 13 13 14 14 13 13 13 13 13 13 13 13 12 11 10
5 7 9 10 9 10 10 10 11 14 16 18 19 17 15 12 11 14 18 18 17 17 16 14 13 11 11 11 11 12 12 13 14 14 13 12 9 8 12 16 17 17 16 16 15 15 15 14 14 14 13 12 12 11 11 10 10 9 8 9 10 12 13 13 14 13 14 15 15 14 14 15 15 14 13 13 13 13 12 11 11 12 12 11 11
5 6 7 7 7 7 7 7 7 9 11 15 17 18 18 16 13 13 15 15 14 15 15 13 11 9 8 8 9 9 9 10 11 12 12 10 8 9 13 16 16 15 16 15 14 13 13 13 14 14 12 11 11 10 10 10 10 10 11 13 14 14 15 15 14 15 15 15 15 14 14 14 14 13 13 13 13 13 13 12 12 12 12 12 11
4 4 6 7 7 6 5 3 3 5 7 10 13 14 15 16 15 14 14 13 12 13 14 14 13 11 10 10 10 10 9 8 9 10 11 11 10 11 13 13 14 15 15 14 12 12 12 12 13 12 11 11 11 11 12 13 14 14 15 16 16 16 16 16 15 15 15 15 15 14 13 13 13 13 14 14 15 15 15 15 14 14 14 13 12
1 4 5 6 7 8 7 2 1 1 3 5 8 10 12 13 14 14 14 13 12 12 12 13 13 12 11 11 10 8 8 8 10 11 12 12 11 11 12 13 15 15 14 12 11 11 12 12 12 11 11 11 11 12 14 15 15 15 16 16 17 17 16 16 15 15 14 14 14 13 13 13 13 13 14 14 15 15 15 14 14 14 14 14 13
1 3 3 4 6 9 10 4 3 5 4 4 5 6 9 11 12 12 12 12 11 11 12 12 12 12 11 9 7 6 8 11 12 11 10 10 10 10 11 12 13 13 12 11 10 11 12 13 12 11 11 11 10 11 12 12 13 13 13 14 14 14 14 13 13 13 13 13 13 13 13 13 13 13 13 13 13 13 13 13 13 13 13 13 12
2 1 2 5 7 9 9 4 4 8 8 6 4 4 7 9 9 10 10 10 10 11 12 13 13 11 10 8 7 7 9 11 10 8 7 8 9 9 9 9 9 9 9 9 9 11 12 12 11 11 11 11 10 10 9 9 9 9 8 9 10 9 9 9 9 10 11 11 12 12 12 11 11 12 12 12 12 13 13 13 13 13 12 12 12
3 3 3 3 7 10 9 3 4 7 8 6 4 5 6 7 7 8 9 9 9 10 11 12 12 10 9 8 7 7 8 8 7 7 7 8 8 7 7 7 7 7 7 7 7 9 11 11 10 10 10 10 10 9 9 8 8 7 6 7 7 7 7 7 8 8 9 10 11 11 11 10 10 11 11 10 11 12 13 13 13 13 12 12 12
5 5 4 2 3 9 9 3 4 7 8 7 6 6 7 5 5 6 7 8 9 10 11 12 11 9 8 7 6 5 7 8 9 9 10 10 10 9 9 8 7 8 8 7 8 10 13 13 12 11 11 11 9 8 7 7 7 6 5 6 7 7 8 8 8 7 8 9 9 9 9 9 10 10 10 10 10 12 12 12 12 12 11 11 11
7 6 4 2 1 6 8 5 2 6 8 8 8 8 7 6 6 7 7 8 9 10 11 12 10 9 8 8 7 6 7 9 10 10 10 10 10 10 9 8 9 9 9 9 9 11 13 14 12 10 9 9 8 7 6 5 5 5 4 4 5 5 6 6 6 6 6 6 7 7 8 9 8 8 8 8 9 10 11 12 13 12 11 10 10
6 6 3 1 1 2 6 8 4 3 8 10 10 10 8 7 7 8 8 8 10 11 12 11 10 10 9 8 8 7 7 7 6 7 8 8 9 8 7 8 8 9 8 8 7 8 10 11 8 6 5 5 5 4 3 4 4 5 4 2 1 2 3 3 3 3 4 4 4 5 7 8 8 7 8 8 8 10 11 12 13 13 12 11 11
5 6 4 1 2 1 4 7 8 3 7 11 12 11 9 7 7 8 8 9 10 11 11 11 10 10 8 6 6 7 7 6 5 6 8 8 7 6 6 7 8 8 7 7 5 5 6 6 4 2 2 3 3 2 2 2 4 6 4 1 1 0 2 2 2 2 3 3 3 4 5 6 7 8 8 8 8 9 11 12 12 13 13 13 12
3 6 6 4 3 4 5 7 9 4 7 13 13 11 10 8 7 7 8 8 9 9 10 10 9 8 6 6 6 8 8 6 5 6 7 6 5 5 5 6 7 6 6 6 5 4 4 5 4 2 0 1 3 3 2 3 4 6 4 0 2 1 1 2 2 3 3 3 4 5 5 5 6 8 8 8 8 9 10 11 12 13 13 12 10
2 3 4 4 6 7 5 6 9 6 6 14 14 11 9 7 6 7 7 7 9 9 8 8 7 6 6 7 7 7 6 4 3 3 5 5 4 4 5 6 6 6 5 5 4 3 3 4 4 2 0 2 3 4 4 4 4 3 2 1 2 2 1 1 2 3 3 3 3 4 5 5 6 7 7 7 8 9 10 11 12 12 12 11 9
4 5 6 7 8 8 4 4 7 4 7 15 14 10 9 8 7 7 7 7 7 8 8 7 7 7 7 7 6 6 6 3 2 2 5 5 3 3 4 5 5 5 4 4 4 3 2 2 2 1 2 3 5 5 4 3 2 2 2 3 3 2 2 1 1 2 2 2 3 4 5 6 7 6 6 6 7 8 8 10 12 12 11 10 8
7 8 9 10 11 9 7 4 4 1 8 14 13 10 10 10 8 8 7 6 6 8 8 8 8 9 9 7 6 6 6 4 2 3 6 6 4 3 2 3 5 5 3 3 3 2 1 1 1 1 3 4 4 3 2 1 2 2 3 3 3 3 2 1 1 2 3 4 4 4 5 6 7 6 6 8 9 9 10 10 11 11 10 7 6
7 9 11 12 10 8 8 5 1 2 7 12 13 12 11 10 9 8 7 6 6 8 9 8 9 10 9 6 5 6 6 4 4 5 5 6 4 3 2 3 5 5 3 2 2 1 1 1 1 2 4 4 2 1 1 2 3 3 3 3 3 3 3 3 3 3 4 4 4 4 5 6 7 8 10 11 10 10 10 10 9 8 6 4 3
Wind_Direction
212 204 196 198 209 215 217 218 214 208 205 208 210 201 194 196 196 194 196 196 194 194 195 195 193 190 188 187 185 184 184 183 188 194 197 198 202 205 205 204 204 204 203 203 206 209 210 208 208 207 205 207 208 204 202 202 205 208 207 206 206 205 200 196 192 189 197 204 207 209 208 205 202 203 205 204 202 205 209 210 209 211 212 213 214
216 209 200 196 203 208 211 214 211 205 200 200 203 199 194 195 194 191 194 195 193 195 194 192 192 190 189 190 188 187 188 186 184 188 191 195 199 203 205 205 205 206 204 203 205 208 211 210 210 209 206 208 210 208 204 205 206 207 205 205 205 206 209 210 201 187 190 201 207 209 208 205 204 203 204 206 205 205 209 211 212 215 218 220 222
220 214 208 205 206 204 206 211 207 199 197 196 198 200 197 195 195 194 193 193 192 193 191 190 190 190 190 192 190 188 188 189 188 189 190 193 196 200 203 203 204 205 206 206 206 205 209 212 211 210 209 210 213 213 211 211 212 210 206 202 203 208 214 216 208 195 192 197 206 210 207 205 206 206 206 209 210 208 211 214 216 218 220 222 224
234 231 234 230 220 208 205 207 201 193 194 195 195 198 197 195 195 197 196 193 190 189 189 189 188 188 189 189 187 186 187 189 190 192 194 195 195 198 201 202 202 203 206 210 210 208 210 212 212 211 211 213 216 216 216 218 218 217 213 208 209 216 221 221 217 206 195 193 204 212 211 207 207 209 208 209 212 215 216 218 219 221 223 224 228
258 249 255 249 239 226 211 207 202 193 191 192 193 194 195 194 196 199 198 191 187 187 188 188 184 185 187 186 185 187 188 190 190 191 194 195 196 198 200 203 204 203 206 210 210 212 213 214 215 213 213 215 218 216 216 219 219 220 221 218 218 225 233 229 218 207 198 196 201 209 212 209 207 209 212 211 213 216 220 223 224 226 228 229 233
300 268 256 245 241 239 223 209 206 199 192 191 193 193 194 195 196 198 195 189 185 184 185 187 185 186 189 188 189 190 190 192 192 192 194 194 195 199 200 203 205 206 208 211 213 215 217 218 219 216 215 216 216 214 214 217 220 222 223 222 223 225 233 227 210 201 200 201 201 203 208 208 208 210 214 214 214 216 219 224 228 230 233 234 237
325 299 276 260 253 246 232 219 212 205 196 192 194 194 194 196 196 193 190 189 185 181 182 187 188 190 193 192 191 192 192 192 193 193 194 194 196 201 202 202 204 207 209 211 214 216 217 219 221 219 219 218 216 214 213 216 223 227 226 228 232 232 236 228 209 201 201 201 200 202 206 208 210 214 217 218 219 220 221 223 228 232 234 236 240
341 325 303 281 271 261 248 236 223 213 203 195 194 195 193 195 195 188 185 184 180 175 178 186 190 195 198 196 195 195 193 191 191 192 194 195 198 201 201 199 200 202 206 210 211 212 214 217 220 221 221 219 219 217 215 217 223 229 234 238 237 236 237 224 210 202 201 200 199 202 205 206 209 214 218 216 216 223 226 226 230 236 237 240 244
353 338 322 294 271 261 253 244 230 219 212 201 195 195 193 191 188 185 183 180 173 174 181 191 194 193 190 190 192 193 192 191 191 190 191 193 194 193 193 194 195 197 201 205 208 211 214 217 220 222 219 217 218 218 216 218 222 229 239 237 230 234 232 218 209 203 199 198 199 201 202 205 208 209 211 214 219 228 231 229 233 240 243 244 248
3 344 330 317 289 269 256 243 225 212 212 209 200 195 192 187 182 183 185 178 175 180 187 189 187 181 176 175 177 179 182 185 188 190 188 187 187 187 191 196 198 199 200 203 207 211 213 216 220 220 216 214 215 215 213 212 210 216 225 222 226 242 231 212 208 206 198 194 197 199 199 206 213 213 214 220 227 231 231 228 233 241 245 247 254
12 1 347 335 308 281 261 241 223 210 210 208 202 195 189 181 179 184 185 177 176 180 179 173 169 168 167 165 162 162 165 171 181 188 188 185 184 184 187 192 192 192 198 207 212 211 204 204 210 210 210 212 212 212 213 208 204 205 202 195 213 248 222 207 207 209 204 196 195 198 202 210 217 221 224 227 230 232 232 231 235 239 239 240 249
16 13 5 350 320 282 251 233 222 215 211 205 198 193 186 179 182 188 180 170 169 170 166 160 157 157 157 154 150 147 147 151 162 173 176 175 173 170 161 161 170 170 170 189 201 198 190 193 201 201 201 205 204 204 203 198 200 202 194 181 158 113 162 196 201 206 206 202 196 196 201 208 214 222 229 231 232 234 235 236 238 241 241 238 241
19 19 17 8 349 323 233 218 214 211 209 201 194 191 183 176 180 180 169 162 162 160 155 152 149 148 149 146 143 140 138 139 146 154 158 157 158 159 151 144 152 158 154 154 167 177 181 188 194 192 191 192 188 187 187 186 187 185 174 170 168 144 146 166 172 179 190 192 188 181 183 192 197 203 217 228 233 231 230 235 239 241 243 244 248
24 22 23 21 11 1 285 212 208 205 200 193 188 186 177 168 168 166 159 156 155 150 147 145 143 141 142 141 138 137 137 138 143 146 145 141 143 153 153 146 144 154 161 161 162 169 176 181 181 177 177 181 182 181 180 178 178 177 169 164 165 161 157 157 157 158 162 169 171 165 168 182 186 190 208 230 245 246 244 250 252 249 249 254 262
28 25 26 29 25 16 7 216 192 186 182 176 172 166 157 151 152 153 151 150 147 143 141 140 138 135 134 135 132 128 128 134 145 149 146 139 134 139 148 148 142 146 159 169 170 169 170 172 170 167 167 170 176 179 172 166 165 163 162 160 157 157 155 144 137 135 130 133 134 129 139 159 156 166 213 248 277 292 292 294 296 297 296 293 290
29 27 28 32 34 28 15 11 150 153 155 158 155 147 141 138 138 141 142 140 138 137 134 133 132 130 128 129 126 118 112 119 137 147 151 149 137 130 137 142 139 137 142 151 159 159 157 157 155 153 152 147 142 145 150 154 151 143 140 140 136 137 136 123 113 104 93 91 85 79 82 69 22 345 325 320 319 316 309 306 309 316 321 317 308
30 29 30 33 39 40 26 15 55 116 132 140 139 134 133 132 130 131 132 131 130 129 128 125 124 123 122 120 118 111 102 101 115 130 141 149 144 135 133 134 132 128 125 126 133 135 134 136 137 136 133 126 119 123 134 144 140 130 128 128 123 120 115 107 102 95 82 71 50 27 5 348 336 327 328 327 325 321 318 320 325 331 333 325 312
31 29 31 35 42 49 41 25 33 68 95 116 125 126 127 127 125 122 121 121 121 120 120 118 115 114 113 111 111 109 101 95 98 107 119 134 140 138 136 132 126 122 119 117 118 121 120 121 123 124 119 112 111 117 122 131 129 120 118 120 115 103 92 85 82 72 32 312 309 313 314 321 322 321 323 324 325 328 334 340 338 332 333 325 307
32 32 33 37 44 52 51 39 35 47 60 78 104 116 119 119 120 118 114 112 113 113 113 110 106 104 105 105 106 106 103 97 94 96 106 122 133 135 134 131 124 118 117 115 112 112 113 112 111 111 108 103 103 108 110 116 117 107 99 98 83 52 29 8 341 325 314 310 312 315 322 330 329 328 329 330 337 346 352 353 344 334 333 325 312
37 39 40 43 47 53 56 49 43 46 52 58 72 93 108 113 115 113 109 106 106 107 108 106 101 97 98 100 99 99 101 100 95 94 99 111 127 134 134 131 125 119 116 113 110 107 106 105 102 99 98 97 94 91 89 84 82 77 63 53 49 36 22 5 350 343 341 344 352 356 357 354 347 344 348 357 8 12 5 359 354 348 341 331 321
44 46 48 50 50 51 53 53 52 52 57 62 62 67 89 104 108 108 105 103 102 101 102 102 98 93 90 91 90 88 90 94 96 100 102 106 118 129 131 128 127 124 117 110 106 102 96 94 92 88 86 86 81 74 68 58 51 51 50 54 57 53 44 35 29 27 28 33 38 34 23 17 13 9 4 5 11 11 4 356 353 352 347 342 337
48 50 53 54 54 54 53 52 53 56 60 67 68 62 69 93 103 104 102 101 99 96 95 96 96 92 89 88 87 86 86 87 89 95 104 110 115 120 120 118 123 128 122 111 104 99 92 85 82 80 78 79 80 80 81 80 77 74 73 74 77 76 72 70 68 62 55 50 47 37 29 28 27 19 8 3 2 358 353 348 344 341 336 332 334
49 52 55 56 56 57 57 55 54 54 58 66 73 71 68 81 93 98 99 100 99 98 97 97 95 92 89 89 90 91 90 88 85 84 89 101 111 115 115 113 117 126 122 112 105 102 99 93 91 91 88 86 88 91 92 93 94 93 93 95 93 90 88 85 78 65 53 47 45 46 46 40 33 24 14 9 4 355 348 343 339 336 331 323 321
50 52 53 55 55 54 56 58 59 58 57 61 69 74 72 74 81 88 95 100 100 99 98 96 94 92 91 91 92 93 91 88 86 84 84 88 97 105 113 119 120 119 115 112 110 108 106 106 107 106 102 96 95 93 88 86 87 89 95 103 105 101 96 92 83 72 66 64 61 58 52 42 34 26 18 11 4 354 345 339 334 333 330 323 315
47 48 50 54 56 54 54 58 63 65 64 64 68 73 75 77 82 89 95 98 98 97 96 94 93 93 95 96 96 96 94 91 92 93 92 91 92 96 105 114 116 114 112 112 112 112 113 114 114 113 109 105 103 96 87 83 84 84 86 92 98 95 87 84 82 77 73 70 65 58 49 40 32 24 14 5 356 349 343 338 333 330 328 324 315
42 44 47 52 55 58 60 63 67 72 75 75 76 78 80 82 87 93 98 100 101 102 101 100 101 102 103 103 101 100 98 96 98 99 99 99 98 98 103 107 108 110 112 113 115 117 118 118 116 113 108 104 102 99 93 88 86 84 82 82 84 83 79 78 77 75 72 67 61 54 44 31 18 6 359 354 350 348 345 342 338 335 334 334 329
41 42 45 49 54 59 63 66 69 73 76 80 81 81 83 86 87 88 93 101 110 115 116 116 115 113 110 106 103 101 100 98 98 97 96 97 98 98 101 103 107 112 114 116 118 117 116 115 113 110 108 104 100 98 95 91 85 81 78 77 78 77 76 75 74 70 65 57 47 37 24 10 357 350 347 344 343 342 341 340 340 341 342 342 338
39 41 44 49 56 62 65 66 67 69 71 74 77 77 78 82 84 83 86 96 110 120 126 126 121 117 115 112 109 105 100 96 93 91 89 88 88 92 96 100 106 110 112 115 117 117 117 117 114 110 108 103 97 92 88 84 80 76 75 77 77 76 74 70 64 58 50 38 26 16 6 358 352 348 344 341 340 338 337 340 345 347 349 351 347
44 45 48 53 58 65 71 70 69 70 71 71 73 74 75 78 82 85 88 93 101 110 117 120 119 118 116 115 114 106 98 91 88 86 84 84 86 89 92 97 104 106 109 116 121 120 118 114 109 105 101 96 89 85 81 80 79 77 75 73 69 65 60 55 50 46 36 24 17 12 6 1 358 355 352 350 349 346 346 350 351 351 354 357 356
49 52 54 56 57 60 69 75 75 74 76 76 76 77 77 77 80 86 91 94 97 100 102 103 107 116 117 113 108 100 94 89 86 81 78 83 86 87 89 98 105 107 113 122 124 118 110 103 97 94 92 87 83 81 78 77 77 74 69 63 57 51 47 43 40 34 25 19 18 15 11 9 9 9 8 6 4 4 1 357 354 356 1 1 358
47 52 53 53 56 58 61 72 81 79 78 81 84 84 83 80 78 80 85 88 90 90 91 91 92 97 103 102 97 91 86 86 84 80 81 87 90 91 97 104 108 110 118 124 116 107 103 98 92 89 89 86 81 79 76 74 71 67 62 57 50 43 39 39 36 28 21 22 23 19 19 24 25 23 21 16 12 12 9 2 359 3 8 8 4
45 48 48 47 52 58 61 64 71 71 67 71 80 87 90 88 84 80 79 80 82 81 82 85 86 88 89 88 86 82 79 80 81 80 86 96 101 103 105 107 108 112 121 119 107 100 99 96 91 87 86 83 80 78 75 71 69 64 59 56 53 48 46 44 37 28 26 29 30 31 36 39 37 32 28 25 23 23 20 14 11 11 13 19 26
49 51 51 46 46 53 59 62 64 63 60 60 68 84 94 95 93 90 85 83 83 81 79 78 80 84 85 82 77 74 73 74 73 74 84 98 107 109 107 104 104 107 112 108 101 97 95 91 88 86 85 84 83 84 82 78 73 70 69 71 72 66 55 45 37 37 41 45 47 48 49 47 43 40 38 37 37 35 31 25 21 17 16 19 25
52 54 54 50 45 46 50 59 66 68 69 70 74 83 97 101 101 99 95 89 84 81 78 77 77 80 82 77 72 71 73 74 75 78 88 101 109 113 111 106 100 96 96 98 98 97 95 93 91 91 91 90 87 86 87 85 79 75 75 75 69 57 47 45 49 55 59 59 56 53 49 46 43 38 36 36 37 36 35 33 29 26 23 19 17
42 47 47 46 46 46 48 58 66 67 70 75 80 86 95 103 104 100 96 91 84 78 74 71 68 69 70 67 65 70 75 78 81 84 91 99 108 116 114 104 95 90 89 91 94 97 97 96 94 95 95 93 87 83 83 83 78 70 66 62 58 56 58 63 66 65 62 58 55 50 46 43 40 37 35 36 35 35 37 38 38 39 37 32 30
25 33 40 45 47 47 50 59 65 66 69 76 83 88 92 97 105 106 100 93 85 77 71 65 60 58 56 57 64 72 74 75 79 83 85 90 99 108 103 98 94 93 92 92 94 98 98 96 95 96 95 90 84 78 75 74 72 68 68 71 75 76 75 72 67 61 56 55 52 48 44 42 41 41 41 42 43 43 40 39 41 43 42 41 43
16 25 48 62 61 52 50 56 64 69 73 78 84 88 89 89 98 111 111 100 87 76 69 65 61 56 57 68 84 91 88 81 79 79 78 77 78 85 94 99 100 100 99 96 96 100 100 95 93 94 91 85 80 76 75 79 83 86 88 86 82 78 73 67 62 59 57 56 54 49 47 46 46 45 45 45 47 45 40 37 37 36 34 34 33
11 38 68 72 60 49 44 48 67 74 80 86 88 90 92 93 97 108 115 112 98 83 75 72 69 70 82 101 111 114 109 99 84 72 67 67 73 84 95 101 102 103 104 100 96 100 102 97 94 93 91 91 92 91 92 95 95 93 90 85 79 72 68 65 64 64 63 60 57 54 52 51 49 46 44 43 42 39 37 35 33 30 28 25 22
28 61 78 74 53 36 22 353 207 117 93 98 97 96 100 104 107 112 116 116 108 94 84 79 78 84 98 111 115 113 102 87 76 70 70 73 80 89 96 99 100 102 100 91 90 103 109 104 101 100 98 101 106 105 101 98 94 88 84 81 76 71 67 67 69 68 64 60 57 54 50 48 45 41 38 36 34 33 32 29 26 24 22 20 20
68 48 54 50 31 17 11 3 197 187 169 140 122 112 111 113 117 120 120 117 113 105 95 88 88 94 103 104 98 92 90 88 86 83 83 85 89 94 97 98 96 95 89 78 85 110 118 112 106 105 101 99 103 104 100 95 92 88 86 82 77 73 70 69 68 64 58 53 48 44 41 38 33 31 31 30 26 23 21 20 20 18 14 13 16
19 336 1 24 22 15 16 36 167 180 178 170 155 136 127 121 121 124 121 115 112 108 102 98 98 102 103 96 84 83 91 94 91 85 89 99 104 102 100 99 97 95 89 81 93 119 128 122 114 107 98 92 91 91 88 87 86 86 87 86 82 81 78 73 65 58 51 42 35 33 34 31 22 18 20 23 22 19 15 13 12 11 9 9 10
358 301 301 10 29 21 16 25 166 176 181 185 175 146 134 127 125 129 126 122 123 120 113 109 108 107 103 94 86 85 89 90 83 78 94 117 127 115 104 107 118 123 113 94 101 128 134 126 117 110 99 92 89 86 85 85 84 84 94 101 97 91 84 75 64 54 46 39 34 31 28 25 22 21 22 24 22 16 10 5 1 360 360 2 5
3 336 304 282 21 18 13 9 184 183 187 189 176 160 155 151 151 151 145 139 140 140 132 126 123 118 109 96 83 77 82 89 94 94 99 113 124 119 109 107 120 133 127 100 99 123 127 116 106 101 97 94 94 92 88 84 77 74 89 107 102 89 78 68 60 52 46 42 39 35 29 27 30 33 31 27 18 13 12 8 2 358 357 360 5
9 357 333 253 288 12 23 38 169 202 199 188 177 176 179 175 169 171 168 159 155 153 146 138 133 130 122 104 90 92 100 107 112 112 108 110 116 119 115 108 109 119 121 103 95 110 118 112 103 99 99 102 106 102 93 82 66 55 62 84 88 79 68 59 53 52 49 40 33 31 31 32 32 32 30 25 17 14 19 19 12 7 4 2 6
17 3 354 250 231 3 37 43 25 256 210 190 181 182 184 177 169 174 177 171 164 160 153 145 140 141 136 115 100 111 126 127 127 130 126 120 119 122 124 120 113 112 117 114 104 105 113 114 110 106 107 112 114 105 88 73 52 35 34 59 89 60 50 44 39 44 48 38 26 24 27 29 28 25 23 22 15 11 16 19 16 12 8 5 8
26 11 13 98 200 311 18 27 14 322 216 197 189 184 180 171 168 174 179 176 168 163 159 152 143 141 140 124 107 117 128 128 133 142 138 130 128 128 125 121 116 109 107 111 112 112 122 135 143 140 114 101 86 66 53 32 14 10 13 46 189 15 17 6 359 20 32 30 25 22 20 20 21 18 15 15 13 10 13 15 15 13 10 7 11
11 9 18 33 11 341 343 3 8 350 212 201 193 183 174 167 166 172 177 177 172 167 162 154 143 137 140 137 124 120 119 116 127 146 145 135 132 137 133 127 122 112 100 97 105 123 146 162 173 182 135 47 31 20 1 331 338 350 2 57 193 224 319 333 347 4 13 18 22 21 14 8 7 5 5 8 10 9 9 9 7 10 11 8 9
328 342 356 3 359 351 347 4 10 0 208 196 188 179 177 179 180 179 178 176 175 173 167 161 155 150 148 141 132 128 129 118 105 137 161 157 136 135 145 139 126 112 96 86 91 113 158 178 188 199 280 334 334 332 322 312 314 322 317 224 205 215 258 342 3 5 4 6 8 5 360 355 349 346 351 1 4 4 4 5 4 5 8 8 7
317 319 313 313 324 330 333 360 8 2 194 188 185 183 187 191 189 182 174 169 172 176 177 174 169 164 159 152 144 147 160 160 104 136 178 176 142 123 146 150 136 126 110 88 84 93 125 166 187 228 302 312 313 315 314 304 288 260 231 219 211 209 204 161 43 21 10 356 342 342 347 347 341 335 339 350 354 353 353 357 358 358 359 3 8
324 328 325 317 312 307 297 312 353 34 185 188 190 190 189 186 183 180 177 174 178 186 189 185 176 173 176 176 167 165 180 196 185 167 181 181 154 122 139 166 160 150 134 105 102 109 95 102 123 343 334 329 322 318 305 255 217 210 208 206 202 198 198 205 297 337 341 334 326 326 338 346 346 343 339 338 338 335 336 343 351 351 350 358 13
321 327 332 330 316 290 267 262 271 165 187 194 196 195 193 188 185 188 193 195 191 189 189 187 183 182 183 183 180 183 194 197 176 171 188 199 186 152 148 187 184 174 162 154 161 176 252 275 271 314 344 355 4 29 135 165 174 179 184 189 196 203 215 239 276 306 325 332 334 346 357 357 356 350 340 331 326 324 327 335 343 342 337 348 35